Laurens, SC

11:52 PM EDT on September 26, 2016 (GMT -0400)
Laurens

Weather History for KLUX - March, 2013

Change the Weather History Date:

Saturday, March 16, 2013

  Actual Average (KGSP) Record (KGSP)
Temperature  
Mean Temperature 66 °F 53 °F  
Max Temperature 77 °F 65 °F 86 °F (2016)
Min Temperature 55 °F 41 °F 20 °F (1916)
Degree Days  
Heating Degree Days 0 12  
Month to date heating degree days 228  
Since 1 July heating degree days 2677  
Cooling Degree Days 1 0  
Month to date cooling degree days 0  
Year to date cooling degree days 0  
Growing Degree Days 16 (Base 50)    
Moisture  
Dew Point 41 °F    
Average Humidity 42    
Maximum Humidity 63    
Minimum Humidity 24    
Precipitation  
Precipitation 0.00 in 0.15 in 1.90 in (1900)
Month to date precipitation 2.38  
Year to date precipitation 10.17  
Snow  
Snow 0.00 in 0.00 in T in (1960)
Month to date snowfall 0.6  
Since 1 July snowfall 4.4  
Snow Depth -    
Sea Level Pressure  
Sea Level Pressure 29.90 in    
Wind  
Wind Speed 11 mph (SW)    
Max Wind Speed 20 mph    
Max Gust Speed 32 mph    
Visibility 10 miles    
Events      
T = Trace of Precipitation, MM = Missing Value Source: NWS Daily Summary

Daily Weather History Graph

Daily Weather History Graph

Search for Another Location

Airport or City:

Trip Planner

Search our weather history database for the weather conditions in past years. The results will help you decide how hot, cold, wet, or windy it might be!

Date:

Astronomy

Mar. 16, 2013 Rise Set
Actual Time 7:36 AM EDT 7:36 PM EDT
Civil Twilight 7:11 AM EDT 8:01 PM EDT
Nautical Twilight 6:42 AM EDT 8:30 PM EDT
Astronomical Twilight 6:12 AM EDT 9:00 PM EDT
Moon 10:18 AM EDT (3/16) No Moon Set
Length of Visible Light 12h 50m
Length of Day
11h 59m
Waxing Crescent, 23% of the Moon is Illuminated
Mar 16
Waxing Crescent
Mar 19
First Quarter
Mar 27
Full
Apr 3
Last Quarter
Apr 10
New

Hourly Weather History & Observations

Time (EDT) Temp. Dew Point Humidity Pressure Visibility Wind Dir Wind Speed Gust Speed Precip Events Conditions
12:15 AM 57.2 °F 41.0 °F 55% 29.96 in 10.0 mi SW 6.9 mph - N/A   Clear
12:35 AM 59.0 °F 41.0 °F 51% 29.96 in 10.0 mi SW 5.8 mph - N/A   Clear
12:55 AM 57.2 °F 41.0 °F 55% 29.95 in 10.0 mi SW 6.9 mph - N/A   Clear
1:15 AM 59.0 °F 41.0 °F 51% 29.94 in 10.0 mi SW 8.1 mph - N/A   Clear
1:35 AM 59.0 °F 41.0 °F 51% 29.94 in 10.0 mi SW 12.7 mph 18.4 mph N/A   Clear
1:55 AM 59.0 °F 41.0 °F 51% 29.94 in 10.0 mi SW 12.7 mph 20.7 mph N/A   Clear
2:15 AM 60.8 °F 41.0 °F 48% 29.94 in 10.0 mi SW 11.5 mph 21.9 mph N/A   Clear
2:35 AM 59.0 °F 41.0 °F 51% 29.93 in 10.0 mi SW 13.8 mph 20.7 mph N/A   Clear
2:55 AM 59.0 °F 41.0 °F 51% 29.94 in 10.0 mi WSW 4.6 mph - N/A   Clear
3:15 AM 59.0 °F 41.0 °F 51% 29.94 in 10.0 mi WSW 8.1 mph - N/A   Clear
3:35 AM 59.0 °F 41.0 °F 51% 29.94 in 10.0 mi WSW 4.6 mph - N/A   Clear
3:55 AM 59.0 °F 41.0 °F 51% 29.94 in 10.0 mi SW 9.2 mph - N/A   Clear
4:15 AM 57.2 °F 41.0 °F 55% 29.94 in 10.0 mi SW 6.9 mph - N/A   Clear
4:35 AM 57.2 °F 41.0 °F 55% 29.93 in 10.0 mi SW 9.2 mph - N/A   Clear
4:55 AM 57.2 °F 41.0 °F 55% 29.93 in 10.0 mi SW 11.5 mph - N/A   Clear
5:15 AM 55.4 °F 41.0 °F 58% 29.93 in 10.0 mi SW 8.1 mph 17.3 mph N/A   Clear
5:35 AM 55.4 °F 41.0 °F 58% 29.93 in 10.0 mi SW 9.2 mph - N/A   Clear
5:55 AM 55.4 °F 41.0 °F 58% 29.93 in 10.0 mi SW 8.1 mph - N/A   Clear
6:15 AM 55.4 °F 41.0 °F 58% 29.93 in 10.0 mi SW 10.4 mph - N/A   Clear
6:35 AM 55.4 °F 41.0 °F 58% 29.93 in 10.0 mi SW 10.4 mph 16.1 mph N/A   Clear
6:55 AM 55.4 °F 41.0 °F 58% 29.94 in 10.0 mi SW 15.0 mph 20.7 mph N/A   Clear
7:35 AM 55.4 °F 41.0 °F 58% 29.95 in 10.0 mi SW 10.4 mph 18.4 mph N/A   Clear
7:55 AM 55.4 °F 42.8 °F 63% 29.95 in 10.0 mi SW 10.4 mph 19.6 mph N/A   Clear
8:15 AM 55.4 °F 42.8 °F 63% 29.96 in 10.0 mi SW 12.7 mph 18.4 mph N/A   Clear
8:35 AM 55.4 °F 42.8 °F 63% 29.96 in 10.0 mi WSW 10.4 mph 16.1 mph N/A   Clear
8:55 AM 57.2 °F 42.8 °F 59% 29.96 in 10.0 mi WSW 12.7 mph 18.4 mph N/A   Clear
9:15 AM 57.2 °F 42.8 °F 59% 29.95 in 10.0 mi WSW 13.8 mph 20.7 mph N/A   Clear
9:35 AM 60.8 °F 42.8 °F 52% 29.95 in 10.0 mi WSW 11.5 mph 19.6 mph N/A   Clear
9:55 AM 60.8 °F 42.8 °F 52% 29.95 in 10.0 mi WSW 15.0 mph 23.0 mph N/A   Clear
10:15 AM 62.6 °F 42.8 °F 48% 29.95 in 10.0 mi WSW 18.4 mph 25.3 mph N/A   Clear
10:35 AM 64.4 °F 42.8 °F 45% 29.94 in 10.0 mi WSW 11.5 mph 23.0 mph N/A   Clear
10:55 AM 66.2 °F 42.8 °F 43% 29.93 in 10.0 mi WSW 9.2 mph 19.6 mph N/A   Clear
11:15 AM 68.0 °F 42.8 °F 40% 29.93 in 10.0 mi WSW 11.5 mph 18.4 mph N/A   Clear
11:35 AM 68.0 °F 42.8 °F 40% 29.92 in 10.0 mi WSW 12.7 mph 24.2 mph N/A   Clear
11:55 AM 69.8 °F 44.6 °F 40% 29.91 in 10.0 mi WSW 15.0 mph 21.9 mph N/A   Clear
12:15 PM 69.8 °F 44.6 °F 40% 29.90 in 10.0 mi WSW 12.7 mph 23.0 mph N/A   Clear
12:35 PM 71.6 °F 44.6 °F 38% 29.90 in 10.0 mi WSW 16.1 mph 27.6 mph N/A   Clear
12:55 PM 71.6 °F 44.6 °F 38% 29.90 in 10.0 mi West 16.1 mph 31.1 mph N/A   Clear
1:15 PM 73.4 °F 44.6 °F 36% 29.88 in 10.0 mi West 15.0 mph 26.5 mph N/A   Clear
1:35 PM 73.4 °F 44.6 °F 36% 29.88 in 10.0 mi WSW 17.3 mph 26.5 mph N/A   Clear
1:55 PM 73.4 °F 44.6 °F 36% 29.87 in 10.0 mi WSW 16.1 mph 26.5 mph N/A   Clear
2:15 PM 75.2 °F 44.6 °F 34% 29.86 in 10.0 mi WSW 16.1 mph 25.3 mph N/A   Clear
2:35 PM 77.0 °F 42.8 °F 29% 29.85 in 10.0 mi SW 16.1 mph 24.2 mph N/A   Clear
2:55 PM 75.2 °F 42.8 °F 31% 29.84 in 10.0 mi WSW 16.1 mph 31.1 mph N/A   Clear
3:15 PM 77.0 °F 41.0 °F 28% 29.83 in 10.0 mi SW 18.4 mph 29.9 mph N/A   Clear
3:35 PM 77.0 °F 41.0 °F 28% 29.83 in 10.0 mi WSW 12.7 mph 24.2 mph N/A   Clear
3:55 PM 77.0 °F 39.2 °F 26% 29.83 in 10.0 mi SW 18.4 mph 32.2 mph N/A   Clear
4:15 PM 77.0 °F 39.2 °F 26% 29.83 in 10.0 mi SW 18.4 mph 31.1 mph N/A   Clear
4:55 PM 77.0 °F 39.2 °F 26% 29.82 in 10.0 mi WSW 17.3 mph 29.9 mph N/A   Clear
5:15 PM 77.0 °F 41.0 °F 28% 29.82 in 10.0 mi WSW 15.0 mph 28.8 mph N/A   Clear
5:35 PM 77.0 °F 39.2 °F 26% 29.81 in 10.0 mi WSW 17.3 mph 26.5 mph N/A   Clear
5:55 PM 77.0 °F 37.4 °F 24% 29.82 in 10.0 mi SW 13.8 mph 24.2 mph N/A   Clear
6:15 PM 77.0 °F 37.4 °F 24% 29.82 in 10.0 mi WSW 13.8 mph 23.0 mph N/A   Clear
6:35 PM 75.2 °F 37.4 °F 25% 29.81 in 10.0 mi SW 19.6 mph 28.8 mph N/A   Clear
6:55 PM 73.4 °F 37.4 °F 27% 29.82 in 10.0 mi SW 18.4 mph 28.8 mph N/A   Clear
7:15 PM 73.4 °F 35.6 °F 25% 29.84 in 10.0 mi SW 13.8 mph 21.9 mph N/A   Clear
7:35 PM 71.6 °F 35.6 °F 27% 29.84 in 10.0 mi SW 15.0 mph 24.2 mph N/A   Clear
7:55 PM 71.6 °F 35.6 °F 27% 29.85 in 10.0 mi SW 12.7 mph 24.2 mph N/A   Clear
8:15 PM 69.8 °F 35.6 °F 28% 29.86 in 10.0 mi SW 12.7 mph - N/A   Clear
8:35 PM 69.8 °F 35.6 °F 28% 29.87 in 10.0 mi SW 12.7 mph 19.6 mph N/A   Clear
8:55 PM 69.8 °F 35.6 °F 28% 29.88 in 10.0 mi WSW 10.4 mph 16.1 mph N/A   Clear
9:15 PM 68.0 °F 35.6 °F 30% 29.89 in 10.0 mi SW 9.2 mph 16.1 mph N/A   Clear
9:55 PM 66.2 °F 35.6 °F 32% 29.91 in 10.0 mi SW 9.2 mph - N/A   Clear
10:15 PM 66.2 °F 37.4 °F 35% 29.91 in 10.0 mi SW 9.2 mph - N/A   Clear
10:55 PM 64.4 °F 37.4 °F 37% 29.92 in 10.0 mi SW 9.2 mph 16.1 mph N/A   Clear
11:15 PM 64.4 °F 37.4 °F 37% 29.92 in 10.0 mi SW 9.2 mph - N/A   Clear
11:35 PM 64.4 °F 37.4 °F 37% 29.92 in 10.0 mi SW 11.5 mph - N/A   Clear
11:55 PM 62.6 °F 37.4 °F 39% 29.92 in 10.0 mi SW 12.7 mph 17.3 mph N/A   Clear